Location: Middle Street
(51.7167°N, 0.0333°E)
Time: 01:56:38
(UTC+00:00)

SAR-Lupe-4 - Pass Details

Date: 20 January 2021
Orbit: 480 x 484 km, 98.2° (Epoch: 27 February)

Event Time Altitude Azimuth Distance (km) Brightness Sun altitude
Exits shadow 18:31:03 51° 103° (ESE) 614 3.6 -18.6°
Drops below altitude 10° 18:34:30 10° 179° (S) 1,659 6.3 -19.1°
Sets 18:36:35 0° 184° (S) 2,533 7.4 -19.4°
